sat.trackr.live / text

‹ back to catalog

WREN-1

NORAD 60478 · 2024-149L

PAYLOAD ACTIVE UNKNOWN

§ Identity

Operator
Country
HUN
Launch date
2024-08-16
Launch site
AFWTR
Launch vehicle
Mass (kg)
RCS (m²)

External: N2YO · Heavens-Above · Gunter

§ Orbital elements

Epoch: 2026-09-22T17:03:29.958624Z

Period
93.19 min
Inclination
97.3713°
Eccentricity
0.0002745
Mean motion
15.45189633 rev/d
Perigee alt
429.0 km
Apogee alt
432.7 km
Semi-major
6,809.0 km
B*
3.7871e-4
RAAN
351.0766°
Arg perigee
261.6377°
Mean anomaly
98.4561°
Rev number
11,736

§ Raw data

WREN-11 60478U 24149L   26265.71076341  .00017899  00000+0  37871-3 0  99972 60478  97.3713 351.0766 0002745 261.6377  98.4561 15.45189633117361

JSON: /api/v1/satellites/60478 · /tle

For live sub-satellite position, see the globe view (requires WebGL).

§ Visibility from observer

Set your observer location to see the next 7 days of passes ≥ 10°. The values pass through the URL so the page stays shareable.

No JS? Fill the form by hand. The geolocation button needs JavaScript.

§ Radio — SatNOGS DB

ModeDescriptionDownlinkUplink
GMSK Mode U - GMSK4k8 - Transmitter 401.750 MHz
LoRa On-board Whereabouts Locator (OWL) 137.925 MHz

2 transmitters · refreshed weekly from db.satnogs.org